Oregon State Current Weather Observations

 
 ASUS46 KPQR 231210
 RWROR 
 
 OREGON REGIONAL WEATHER ROUNDUP
 NATIONAL WEATHER SERVICE PORTLAND OR
 500 AM PDT WED SEP 23 2020
 
 NOTE: "FAIR" INDICATES FEW OR NO CLOUDS BELOW 12,000 FEET WITH
 NO SIGNIFICANT WEATHER AND/OR OBSTRUCTIONS TO VISIBILITY.
 
 ORZ001>013-231300-
 NORTHWEST OREGON
 
   
 CITY           SKY/WX    TMP DP  RH WIND       PRES   REMARKS
 ASTORIA        LGT RAIN  62  58  86 S15G23    29.84F                  
 6HR MIN TEMP:  56; 6HR MAX TEMP:  62; 6HR PCP:  0.07;                
 
 TILLAMOOK      RAIN      61  59  94 SE9       29.94R                  
 NEWPORT        CLOUDY    61  57  88 S15G24    29.95F                  
 FLORENCE       CLOUDY    65  56  73 S12       29.95F                  
 PORTLAND       LGT RAIN  64  55  72 S7        29.95R                  
 6HR MIN TEMP:  64; 6HR MAX TEMP:  67; 6HR PCP: TRACE;                
 
 VANCOUVER WA   CLOUDY    66  51  58 S6        29.94R                  
 6HR MIN TEMP:  65; 6HR MAX TEMP:  67;                                
 
 SCAPPOOSE      LGT RAIN  61  53  75 E3        29.93R                  
 6HR MIN TEMP:  56; 6HR MAX TEMP:  64; 6HR PCP: TRACE;                
 
 HILLSBORO      CLOUDY    62  52  69 S9        29.92F                  
 6HR MIN TEMP:  59; 6HR MAX TEMP:  64; 6HR PCP: TRACE;                
 
 AURORA         CLOUDY    64  54  69 SW5       29.95S                  
 6HR MIN TEMP:  62; 6HR MAX TEMP:  64;                                
 
 MCMINNVILLE    CLOUDY    63  52  67 SE5       29.93S                  
 6HR MIN TEMP:  59; 6HR MAX TEMP:  63;                                
 
 SALEM          CLOUDY    63  54  72 S9        29.94S                  
 6HR MIN TEMP:  61; 6HR MAX TEMP:  63;                                
 
 EUGENE         PTCLDY    60  55  83 SE6       29.98S                  
 6HR MIN TEMP:  58; 6HR MAX TEMP:  62;                                
 
 CRESWELL       PTCLDY    57  57 100 CALM      29.98F                  
 
ORZ021-028-231300- SOUTHWEST OREGON CITY SKY/WX TMP DP RH WIND PRES REMARKS NORTH BEND CLOUDY 61 56 83 SE9 29.99S 6HR MIN TEMP: 57; 6HR MAX TEMP: 62; BROOKINGS CLOUDY 61 52 72 VRB5 30.07S ROSEBURG PTCLDY 58 53 84 CALM 30.00F 6HR MIN TEMP: 57; 6HR MAX TEMP: 63; SEXTON SUMMIT PTCLDY 52 36 54 S12 30.09S 6HR MIN TEMP: 52; 6HR MAX TEMP: 54; GRANTS PASS NOT AVBL MEDFORD PTCLDY 51 38 60 CALM 30.05S 6HR MIN TEMP: 51; 6HR MAX TEMP: 66;
ORZ014>016-041-231300- COLUMBIA GORGE CITY SKY/WX TMP DP RH WIND PRES REMARKS TROUTDALE CLOUDY 62 55 77 CALM 29.95S 6HR MIN TEMP: 61; 6HR MAX TEMP: 64; HOOD RIVER MOCLDY 55 52 88 CALM 29.96S THE DALLES MOCLDY 60 50 69 E3 29.94S 6HR MIN TEMP: 60; 6HR MAX TEMP: 66;
ORZ029>031-041-044-049-050-061>064-502-503-505>511-231300- EASTERN OREGON CITY SKY/WX TMP DP RH WIND PRES REMARKS MADRAS MOCLDY 55 43 62 SE3 30.02S REDMOND MOCLDY 61 36 39 S13 30.02F 6HR MIN TEMP: 58; 6HR MAX TEMP: 65; BEND MOCLDY 57 37 47 S6 30.06F PRINEVILLE N/A 55 37 50 S6 30.04F KLAMATH FALLS PTCLDY 42 35 76 N3 30.13R 6HR MIN TEMP: 40; 6HR MAX TEMP: 56; LAKEVIEW PTCLDY 47 33 58 SE9 30.19S HERMISTON CLOUDY 62 46 55 S6 29.95S 6HR MIN TEMP: 61; 6HR MAX TEMP: 67; PENDLETON MOCLDY 58 47 66 SE5 29.98S 6HR MIN TEMP: 57; 6HR MAX TEMP: 67; JOHN DAY MOCLDY 57 41 56 E7 30.09R MEACHAM MOCLDY 48 41 76 CALM 30.06S 6HR MIN TEMP: 48; 6HR MAX TEMP: 53; LA GRANDE MOCLDY 51 45 79 CALM 30.06R 6HR MIN TEMP: 51; 6HR MAX TEMP: 65; BAKER CITY MOCLDY 51 43 74 CALM 30.07R 6HR MIN TEMP: 50; 6HR MAX TEMP: 63; BURNS MOCLDY 44 31 60 E3 30.14R 6HR MIN TEMP: 43; 6HR MAX TEMP: 63; ROME N/A 55 20 25 S8 30.12R 6HR MIN TEMP: 53; 6HR MAX TEMP: 64; ONTARIO MOCLDY 53 42 66 W3 30.05R 6HR MIN TEMP: 51; 6HR MAX TEMP: 62;
OTHER REGIONAL REPORTS CITY SKY/WX TMP DP RH WIND PRES REMARKS SEATTLE LGT RAIN 58 56 93 S7 29.87F 6HR MIN TEMP: 58; 6HR MAX TEMP: 64; 6HR PCP: 0.12; SPOKANE CLOUDY 57 44 62 S10 29.98F 6HR MIN TEMP: 56; 6HR MAX TEMP: 60; VANCOUVER BC LGT RAIN 61 55 82 E13G26 29.77F PRINCE GEORGE LGT RAIN 50 46 87 SE5 29.63F DAWSON CREEK MOCLDY 43 41 93 E6 29.69F WHITEHORSE MOCLDY 39 34 81 VRB2 29.43F BOISE MOCLDY 62 36 37 SE9 30.06R HAZE 6HR MIN TEMP: 61; 6HR MAX TEMP: 67; REDDING CLEAR 59 50 72 CALM 30.02S 6HR MIN TEMP: 58; 6HR MAX TEMP: 69; SAN FRANCISCO CLEAR 59 52 77 NW8 30.06S 6HR MIN TEMP: 58; 6HR MAX TEMP: 63;

Data from: http://www.wrh.noaa.gov/sew/get.php?pil=RWR&sid=OR&version=0&format=printer

Current Observations

Current Weather Conditions by Major Highway
Washington State Current Weather Observations   …  Oregon State Current Weather Observation



48 Hour Forecast


Seattle  …  Vancouver  …  Portland
————————————————————————————————————————
Bend  …  Spokane  …  Richland  …  Pendleton  …  Blue Mountains I-84  …  Yakima
————————————————————————————————————————
Goldendale, Washington Higher Elevations  …  Dallesport Airport - Goldendale  …  Bingen - White Salmon - Hood River  …  Index





Top of Page